Content
SEND FEEDBACK

Daily
Averages
Monthly
Summary
United Kingdom

LONDON, ENGLAND


Home > Europe > United Kingdom > England
Elevation: 61 meters     Latitude: 51 09N     Longitude: 000 11W

WEATHER
 
SELECT A DAY
Number of Records: 292,972;   Date Range: 7/1/96 - 7/29/14
 
SHARE

PRINT THIS DATA

[ ← Previous Day ]
WEATHER ALMANAC - 12 JUNE, 2013
[ Next Day → ]
[ °F ]   °C
Weather ElementAverageHighLow
Temperature14.7 °C16 °C (4:20 pm)14 °C (12:50 am)
Dewpoint13.6 °C15 °C (4:20 pm)12 °C (7:50 am)
Humidity93 %100 % (3:20 am)82 % (11:20 am)
Barometer1012.2 hPa1013.2 hPa (12:50 am)1011.2 hPa (4:20 am)
Wind Speed19.6 km/h27.8 km/h (11:50 pm)
Wind Gust48.1 km/h (8:20 pm)
Weather ElementAverage
Visibility7.7 km
Wind DirectionSSW (210.4 °)

Weather ElementTotal
Precipitation---
Heating Degree Days3.3 (Base 18.3)
Growing Degree Days5 (Base 10)
Averaged from 47 records on 12 June, 2013
WEATHER CONDITIONS BREAKOUT
WIND DIRECTION BREAKOUT
WEATHER BY HOUR - 12 JUNE, 2013
[ °F ]   °C
Local TimeTemperatureDewpointHumidityBarometerVisibilityWind DirectionWind SpeedGust SpeedPrecipitationEventsConditions
12:50 AM14 °C13 °C94 %1013.2 hPa10 kmSouth (170°)11.1 km/hMostly Cloudy
1:20 AM14 °C13 °C94 %1013.2 hPa6.9 kmSouth (170°)9.3 km/hMostly Cloudy
1:50 AM14 °C13 °C94 %1012.2 hPa8 kmSouth (180°)9.3 km/hMostly Cloudy
2:20 AM15 °C14 °C94 %1012.2 hPa9 kmSouth (190°)13 km/hMostly Cloudy
2:50 AM15 °C14 °C94 %1012.2 hPaSSW (200°)16.7 km/hLight Drizzle
3:20 AM14 °C14 °C100 %1012.2 hPa5 kmSSW (200°)13 km/hRainLight Rain
3:50 AM14 °C14 °C100 %1012.2 hPa6 kmSSW (200°)16.7 km/hLight Drizzle
4:20 AM14 °C14 °C100 %1011.2 hPa4.5 kmSSW (210°)20.4 km/h40.7 km/hLight Drizzle
4:50 AM14 °C13 °C94 %1012.2 hPaSSW (210°)22.2 km/hLight Drizzle
5:20 AM14 °C13 °C94 %1012.2 hPaSSW (210°)18.5 km/hLight Drizzle
5:50 AM14 °C13 °C94 %1011.2 hPa5 kmSSW (210°)16.7 km/hLight Drizzle
6:20 AM14 °C13 °C94 %1011.2 hPa10 kmSSW (210°)20.4 km/hMostly Cloudy
6:50 AM14 °C13 °C94 %1012.2 hPa10 kmSSW (210°)20.4 km/hMostly Cloudy
7:20 AM14 °C13 °C94 %1012.2 hPa6.9 kmSSW (210°)18.5 km/hRainLight Rain
7:50 AM14 °C12 °C88 %1012.2 hPa10 kmSSW (210°)20.4 km/h40.7 km/hRainLight Rain
8:20 AM14 °C12 °C88 %1012.2 hPa10 kmSW (220°)20.4 km/hMostly Cloudy
8:50 AM14 °C12 °C88 %1012.2 hPa10 kmSW (220°)22.2 km/hMostly Cloudy
9:20 AM14 °C12 °C88 %1013.2 hPa10 kmSW (220°)20.4 km/h38.9 km/hOvercast
9:50 AM14 °C12 °C88 %1013.2 hPa10 kmSW (220°)22.2 km/hMostly Cloudy
10:20 AM14 °C12 °C88 %1013.2 hPa10 kmSW (220°)18.5 km/hMostly Cloudy
10:50 AM14 °C12 °C88 %1013.2 hPa10 kmSW (230°)18.5 km/hMostly Cloudy
11:20 AM15 °C12 °C82 %1013.2 hPa10 kmSW (230°)14.8 km/hMostly Cloudy
11:50 AM15 °C13 °C88 %1013.2 hPa10 kmSW (220°)20.4 km/hOvercast
12:20 PM15 °C13 °C88 %1013.2 hPa9 kmSW (220°)22.2 km/hMostly Cloudy
12:50 PM14 °C13 °C94 %1013.2 hPa10 kmSW (220°)20.4 km/hMostly Cloudy
1:20 PM15 °C13 °C88 %1013.2 hPa10 kmSSW (210°)16.7 km/hMostly Cloudy
1:50 PM15 °C13 °C88 %1013.2 hPa10 kmSW (220°)18.5 km/hMostly Cloudy
2:20 PM15 °C14 °C94 %1013.2 hPa8 kmSSW (210°)14.8 km/hLight Drizzle
2:50 PM15 °C14 °C94 %1013.2 hPa3.5 kmSSW (200°)16.7 km/hDrizzle
3:20 PM15 °C14 °C94 %1012.2 hPa5 kmSSW (200°)20.4 km/hRainLight Rain
3:50 PM15 °C14 °C94 %1012.2 hPa6 kmSSW (200°)16.7 km/hRainLight Rain
4:20 PM16 °C15 °C94 %1012.2 hPa6.9 kmSSW (210°)16.7 km/hRainLight Rain
4:50 PM16 °C15 °C94 %1011.2 hPa8 kmSSW (200°)18.5 km/hOvercast
5:20 PM16 °C15 °C94 %1011.2 hPa10 kmSSW (210°)18.5 km/hLight Drizzle
5:50 PM16 °C15 °C94 %1011.2 hPa4 kmSSW (210°)22.2 km/hRainLight Rain
6:20 PM16 °C15 °C94 %1011.2 hPa4 kmSSW (210°)22.2 km/hDrizzle
6:50 PM16 °C15 °C94 %1011.2 hPa8 kmSSW (210°)25.9 km/hRainLight Rain
7:20 PM16 °C15 °C94 %1011.2 hPa8 kmSSW (210°)22.2 km/h40.7 km/hRainLight Rain
7:50 PM16 °C15 °C94 %1011.2 hPa4 kmSW (220°)25.9 km/h46.3 km/hRainRain
8:20 PM16 °C15 °C94 %1011.2 hPa3.5 kmSW (220°)25.9 km/h48.1 km/hRainRain
8:50 PM15 °C15 °C100 %1011.2 hPa4 kmSSW (210°)22.2 km/hRainLight Rain
9:20 PM15 °C14 °C94 %1011.2 hPa4 kmSSW (210°)24.1 km/h42.6 km/hRainRain
9:50 PM15 °C14 °C94 %1011.2 hPa5 kmSW (220°)24.1 km/hRainLight Rain
10:20 PM15 °C14 °C94 %1011.2 hPaSW (220°)25.9 km/hLight Drizzle
10:50 PM14 °C14 °C100 %1011.2 hPa9 kmSW (230°)25.9 km/hRainLight Rain
11:20 PM14 °C13 °C94 %1011.2 hPaSW (220°)24.1 km/hLight Drizzle
11:50 PM14 °C13 °C94 %1011.2 hPa10 kmSW (230°)27.8 km/hRainLight Rain
Hourly data recorded from EGKK, located 0 kilometers away from London, England







STORIES FROM OUR PARTNERS